[[{"header":{"parameterUnit":"m.s-1","parameterCategory":1,"la1":30.2991,"la2":30.254,"lo1":-89.0895,"lo2":-89.0444,"dy":0.0017,"dx":0.0017,"nx":28,"ny":28,"refTime":"2023-09-04T21:00:00:Z","depth":0,"parameterNumber":2,"parameterNumberName":"U-component_of_WINDS"},"data":[0,0,0,0,0,0,0,0,0,0,0,0,0,0,0,0,0,0,0,0,0,0,0,0,0,0,0,0,0,0,0,0,0,0,0,0,0,0,0,0,0,0,0,0,0,0,0,0,0,0,0,0,0,0,0,0,0,0,-3.9465,-3.9465,0,-3.9472,-3.9472,-3.9472,-3.9436,-3.9435,-3.9434,-3.9433,-3.9439,-3.944,-3.9441,0,0,0,0,0,0,0,0,0,0,0,0,0,-3.942,-3.9421,-3.9465,-3.9465,-3.9465,-3.9472,-3.9472,-3.9472,-3.9436,-3.9435,-3.9433,-3.9432,-3.9439,-3.944,-3.9441,0,0,0,0,0,0,0,0,0,0,0,0,0,-3.9434,-3.9421,-3.9465,-3.9448,-3.9446,-3.9472,-3.9472,-3.9472,-3.9436,-3.9435,-3.9433,-3.9432,-3.9438,-3.944,-3.9442,-3.9483,0,0,-3.9447,-3.9448,0,0,0,0,0,0,0,0,-3.9433,-3.9436,-3.945,-3.9449,-3.9448,-3.9451,-3.9458,-3.9476,-3.9437,-3.944,-3.9433,-3.9431,-3.9444,-3.9445,-3.945,-3.9484,-3.9484,-3.9447,-3.9448,-3.9449,-3.9449,0,0,0,0,0,0,0,-3.9433,-3.9435,-3.9468,-3.9451,-3.9449,-3.944,-3.944,-3.9461,-3.9451,-3.944,-3.9437,-3.9438,-3.9443,-3.9449,-3.945,-3.9484,-3.9447,-3.9448,-3.9449,-3.945,-3.9551,-3.9553,0,0,0,0,0,0,-3.9434,-3.9435,-3.9467,-3.9468,-3.9437,-3.9442,-3.9442,-3.9452,-3.9451,-3.9449,-3.944,-3.9437,-3.9446,-3.9448,-3.945,-3.9498,-3.9449,-3.945,-3.9451,-3.955,-3.9552,-3.9553,0,0,0,0,0,0,-3.9433,-3.9437,-3.9467,-3.9451,-3.9454,-3.9444,-3.9455,-3.9453,-3.9458,-3.9451,-3.9448,-3.9447,-3.9445,-3.9448,-3.9475,-3.9498,-3.9451,-3.9453,-3.9548,-3.955,-3.9553,-3.9594,0,0,0,0,0,0,-3.9432,-3.9437,-3.9453,-3.9451,-3.9455,-3.9492,-3.9457,-3.9454,-3.9461,-3.9457,-3.9457,-3.9455,-3.9444,-3.9473,-3.9477,-3.9499,-3.9454,-3.9546,-3.9549,-3.9552,-3.9591,-3.9598,-3.9604,0,0,0,0,0,-3.943,-3.9464,-3.9454,-3.9458,-3.9474,-3.9494,-3.9496,-3.9482,-3.9463,-3.9479,-3.9474,-3.9455,-3.9495,-3.9476,-3.948,-3.9503,-3.9544,-3.9548,-3.9551,-3.9588,-3.9597,-3.9604,0,0,0,0,0,0,-3.9469,-3.9464,-3.9452,-3.9487,-3.9491,-3.9488,-3.9507,-3.9492,-3.9502,-3.9497,-3.948,-3.9481,-3.9511,-3.951,-3.9489,-3.9543,-3.9516,-3.9521,-3.9542,-3.9551,-3.9557,-3.9556,-3.9455,0,0,0,0,0,-3.9481,-3.9497,-3.9492,-3.9523,-3.9526,-3.9516,-3.9524,-3.9514,-3.9517,-3.9519,-3.9516,-3.952,-3.9533,-3.9542,-3.9554,-3.9591,-3.959,-3.9609,-3.9616,-3.9621,-3.9625,-3.9644,-3.9652,-3.9566,-3.9566,-3.9566,0,0,-3.9507,-3.9506,-3.9518,-3.9531,-3.9533,-3.955,-3.9518,-3.9537,-3.9549,-3.9521,-3.9547,-3.9545,-3.9549,-3.9581,-3.9595,-3.9581,-3.9649,-3.9626,-3.9631,-3.9631,-3.9649,-3.9657,-3.9664,-3.9568,-3.9568,-3.9567,0,0,-3.9562,-3.9564,-3.959,-3.9592,-3.9596,-3.9589,-3.9596,-3.9595,-3.9592,-3.9618,-3.9597,-3.9611,-3.9635,-3.9638,-3.9642,-3.9699,-3.9682,-3.9704,-3.9737,-3.9756,-3.9763,-3.9769,-3.9788,-3.9795,-3.9708,-3.9708,-3.9708,0,-3.9594,-3.9618,-3.9605,-3.9625,-3.9631,-3.9607,-3.9633,-3.9636,-3.9643,-3.9648,-3.9633,-3.9661,-3.9662,-3.9694,-3.9708,-3.9713,-3.9719,-3.9703,-3.9763,-3.9769,-3.9774,-3.9792,-3.9799,-3.9711,-3.971,-3.971,-3.971,0,-3.9656,-3.9674,-3.9694,-3.9701,-3.971,-3.9733,-3.9722,-3.9733,-3.9722,-3.9717,-3.9743,-3.9743,-3.9754,-3.9761,-3.9751,-3.9792,-3.9783,-3.9766,-3.9738,-3.9785,-3.9802,-3.9808,-3.9714,-3.9713,-3.9713,-3.9712,0,0,-3.9734,-3.9734,-3.9742,-3.9745,-3.9747,-3.976,-3.9782,-3.9793,-3.9802,-3.9808,-3.9825,-3.9846,-3.983,-3.9835,-3.9825,-3.9842,-3.9885,-3.9822,-3.9822,-3.9832,-3.993,-3.9941,-3.995,-3.9875,-3.9876,-3.9877,-3.9929,0,-3.9787,-3.9824,-3.9813,-3.985,-3.9865,-3.9844,-3.9863,-3.9866,-3.9862,-3.9874,-3.987,-3.9884,-3.9863,-3.9866,-3.9881,-3.9877,-3.9904,-3.9873,-3.989,-3.989,-3.9888,-3.9958,-3.9971,-4.002,-3.9935,-3.9936,-3.9937,0,-3.9854,-3.9862,-3.9901,-3.9901,-3.9907,-3.9924,-3.9933,-3.9945,-3.9949,-3.9945,-3.9951,-3.9937,-3.9958,-3.9932,-3.996,-3.9939,-3.9945,-3.9944,-3.9946,-3.9945,-3.9915,-3.9958,-4.0035,-4.0042,-3.9948,-3.9947,-3.9946,0,-3.9905,-3.9927,-3.9952,-3.9956,-3.9956,-3.9969,-3.9969,-3.9971,-3.9979,-3.9987,-3.9991,-4.0002,-4.0007,-4.0016,-4.0005,-3.9987,-4.0034,-4.0007,-4.0031,-4.0031,-4.004,-4.0039,-4.0117,-4.0047,-4.0047,-4.0047,-4.0047,0,-3.9964,-3.9989,-3.9975,-3.9991,-4.0017,-4.0004,-4.0031,-4.0029,-4.0031,-4.0046,-4.0028,-4.0042,-4.0028,-4.0041,-4.0033,-4.0057,-4.006,-4.0057,-4.0054,-4.0057,-4.0058,-4.006,-4.0056,-4.0049,-4.0049,-4.0048,-4.0048,0,-4.0026,-4.0018,-4.0044,-4.0043,-4.0043,-4.0062,-4.0061,-4.0075,-4.007,-4.0089,-4.0092,-4.0085,-4.0099,-4.009,-4.0104,-4.0099,-4.013,-4.0123,-4.0128,-4.0126,-4.015,-4.0147,-4.023,-4.024,-4.0165,-4.0166,-4.0167,0,-4.0063,-4.0081,-4.0082,-4.009,-4.0092,-4.0106,-4.0114,-4.0102,-4.011,-4.0115,-4.0129,-4.0142,-4.0151,-4.0174,-4.017,-4.0181,-4.0173,-4.0202,-4.0175,-4.0177,-4.0172,-4.017,-4.0171,-4.0207,-4.0208,-4.0208,-4.0209,0,-4.013,-4.0126,-4.0137,-4.0147,-4.0156,-4.0164,-4.017,-4.0178,-4.0165,-4.0176,-4.019,-4.0197,-4.0212,-4.0224,-4.0233,-4.0234,-4.0219,-4.0218,-4.0223,-4.0226,-4.0228,-4.0226,-4.0142,-4.0215,-4.0215,-4.0214,-4.0214,-4.0214,-4.018,-4.0195,-4.0197,-4.021,-4.0213,-4.0219,-4.0232,-4.0229,-4.0241,-4.0252,-4.0244,-4.0261,-4.0264,-4.0274,-4.0277,-4.0289,-4.0278,-4.0286,-4.0288,-4.029,-4.0293,-4.0227,-4.0291,-4.0291,-4.0291,-4.0291,-4.029,0,-4.0245,-4.0245,-4.0258,-4.0266,-4.0277,-4.0263,-4.0269,-4.0278,-4.0293,-4.0297,-4.0306,-4.0322,-4.0335,-4.0331,-4.0342,-4.0353,-4.0346,-4.0356,-4.0354,-4.0354,-4.0303,-4.0296,-4.0361,-4.0361,-4.0361,-4.0361,-4.0361,-4.0361,-4.028,-4.0304,-4.0299,-4.0324,-4.0325,-4.0341,-4.0345,-4.035,-4.0353,-4.0372,-4.0382,-4.038,-4.0381,-4.0392,-4.0402,-4.0401,-4.0405,-4.0417,-4.0413,-4.0365,-4.0358,-4.0351,-4.0345,-4.0418,-4.0418,-4.0463,-4.0463,-4.0463]},{"header":{"parameterUnit":"m.s-1","parameterCategory":1,"la1":30.2991,"la2":30.254,"lo1":-89.0895,"lo2":-89.0444,"dy":0.0017,"dx":0.0017,"nx":28,"ny":28,"refTime":"2023-09-04T21:00:00:Z","depth":0,"parameterNumber":3,"parameterNumberName":"V-component_of_WINDS"},"data":[0,0,0,0,0,0,0,0,0,0,0,0,0,0,0,0,0,0,0,0,0,0,0,0,0,0,0,0,0,0,0,0,0,0,0,0,0,0,0,0,0,0,0,0,0,0,0,0,0,0,0,0,0,0,0,0,0,0,3.6818,3.6818,0,3.6826,3.6826,3.6826,3.6815,3.6815,3.6815,3.6814,3.682,3.6821,3.6821,0,0,0,0,0,0,0,0,0,0,0,0,0,3.6794,3.6795,3.6818,3.6818,3.6819,3.6826,3.6826,3.6826,3.6815,3.6815,3.6815,3.6814,3.682,3.6821,3.6821,0,0,0,0,0,0,0,0,0,0,0,0,0,3.6803,3.6795,3.6818,3.6814,3.6814,3.6826,3.6826,3.6826,3.6816,3.6815,3.6814,3.6814,3.682,3.682,3.6821,3.6837,0,0,3.6823,3.6824,0,0,0,0,0,0,0,0,3.6803,3.6804,3.6815,3.6815,3.6814,3.6819,3.682,3.683,3.6816,3.6815,3.6814,3.6814,3.682,3.6821,3.6823,3.6837,3.6837,3.6824,3.6824,3.6824,3.6825,0,0,0,0,0,0,0,3.6802,3.6804,3.6821,3.6815,3.6815,3.6812,3.6812,3.6821,3.682,3.6815,3.6814,3.6815,3.682,3.6823,3.6823,3.6837,3.6824,3.6824,3.6825,3.6825,3.6866,3.6866,0,0,0,0,0,0,3.6802,3.6804,3.6821,3.6821,3.6807,3.6813,3.6813,3.6818,3.682,3.682,3.6816,3.6815,3.6822,3.6823,3.6824,3.6842,3.6824,3.6825,3.6825,3.6865,3.6866,3.6866,0,0,0,0,0,0,3.6802,3.6804,3.6821,3.6812,3.6814,3.6814,3.6819,3.6819,3.6821,3.6821,3.6821,3.6819,3.6821,3.6822,3.6834,3.6842,3.6825,3.6826,3.6864,3.6865,3.6866,3.688,0,0,0,0,0,0,3.6801,3.6804,3.681,3.6813,3.6815,3.6831,3.682,3.6819,3.6823,3.6822,3.6824,3.6824,3.6821,3.6833,3.6835,3.6843,3.6827,3.6863,3.6865,3.6866,3.6879,3.6881,3.6883,0,0,0,0,0,3.68,3.6813,3.681,3.6812,3.6822,3.6832,3.6833,3.683,3.6824,3.683,3.683,3.6824,3.6842,3.6834,3.6836,3.6845,3.6863,3.6864,3.6866,3.6878,3.6881,3.6883,0,0,0,0,0,0,3.681,3.6813,3.681,3.6824,3.6828,3.683,3.6837,3.6833,3.6838,3.6837,3.6833,3.6833,3.6846,3.6847,3.6838,3.6861,3.6851,3.6853,3.686,3.6862,3.6865,3.6864,3.6827,0,0,0,0,0,3.6814,3.6822,3.6824,3.6836,3.6838,3.6838,3.6841,3.6839,3.6843,3.6844,3.6845,3.6848,3.6855,3.6859,3.6865,3.6879,3.688,3.6886,3.6889,3.6891,3.6892,3.69,3.6903,3.6871,3.6871,3.6871,0,0,3.6821,3.6824,3.6829,3.6838,3.6841,3.6849,3.6839,3.6847,3.6853,3.6845,3.6856,3.6857,3.6861,3.6874,3.688,3.6875,3.6901,3.6893,3.6894,3.6894,3.6902,3.6905,3.6908,3.6872,3.6872,3.6872,0,0,3.684,3.6843,3.6853,3.6857,3.6861,3.6861,3.6864,3.6867,3.6868,3.6879,3.6873,3.688,3.6891,3.6894,3.6897,3.6919,3.6913,3.6921,3.6933,3.6941,3.6943,3.6946,3.6953,3.6956,3.6922,3.6922,3.6922,0,3.6848,3.686,3.6859,3.6868,3.6873,3.6867,3.6878,3.6881,3.6887,3.689,3.6885,3.69,3.6901,3.6916,3.6921,3.6924,3.6926,3.692,3.6943,3.6945,3.6948,3.6955,3.6957,3.6923,3.6923,3.6923,3.6923,0,3.6871,3.688,3.6888,3.6895,3.69,3.691,3.691,3.6916,3.6914,3.6914,3.6926,3.6928,3.6935,3.6939,3.6936,3.6953,3.695,3.6944,3.6934,3.6952,3.6958,3.6961,3.6924,3.6924,3.6924,3.6924,0,0,3.6893,3.6901,3.6904,3.6908,3.6914,3.692,3.6931,3.6938,3.6943,3.6948,3.6956,3.6966,3.6962,3.6965,3.6963,3.6971,3.6988,3.6964,3.6964,3.6968,3.7006,3.701,3.7013,3.6985,3.6985,3.6986,3.7006,0,3.6911,3.693,3.6929,3.6946,3.6954,3.695,3.6959,3.6964,3.6965,3.6972,3.6973,3.698,3.6974,3.6976,3.6983,3.6984,3.6995,3.6983,3.6992,3.6992,3.699,3.7016,3.702,3.7039,3.7008,3.7009,3.7009,0,3.6934,3.6941,3.6959,3.6965,3.6969,3.6977,3.6984,3.6991,3.6996,3.6997,3.7001,3.6999,3.7009,3.7,3.7014,3.7006,3.701,3.7011,3.7012,3.7011,3.7001,3.7017,3.7045,3.7048,3.7013,3.7013,3.7013,0,3.6949,3.6963,3.6975,3.6979,3.6986,3.6992,3.6995,3.7,3.7005,3.7011,3.7014,3.7022,3.7025,3.7031,3.7031,3.7024,3.7045,3.7036,3.7045,3.7045,3.7049,3.7048,3.7078,3.7053,3.7053,3.7053,3.7053,0,3.6968,3.6979,3.6982,3.699,3.7002,3.7002,3.7015,3.7017,3.7022,3.703,3.7027,3.7034,3.7033,3.7041,3.7041,3.7052,3.7054,3.7055,3.7054,3.7054,3.7054,3.7056,3.7055,3.7053,3.7053,3.7053,3.7053,0,3.6986,3.6988,3.7002,3.7008,3.701,3.7019,3.7024,3.7032,3.7033,3.7044,3.7046,3.7048,3.7057,3.7058,3.7067,3.7067,3.7082,3.708,3.708,3.708,3.7089,3.7088,3.712,3.7124,3.7097,3.7097,3.7097,0,3.6998,3.7006,3.7014,3.702,3.7024,3.7033,3.7038,3.7039,3.7045,3.7053,3.7059,3.7068,3.7075,3.7089,3.7092,3.7099,3.7098,3.7108,3.7099,3.7099,3.7097,3.7097,3.7097,3.711,3.711,3.711,3.711,0,3.7019,3.702,3.7028,3.7038,3.7045,3.7052,3.7058,3.7063,3.7065,3.7071,3.7081,3.7087,3.7098,3.7106,3.7114,3.7117,3.7114,3.7114,3.7116,3.7116,3.7116,3.7116,3.7085,3.7113,3.7113,3.7112,3.7112,3.7112,3.7034,3.7042,3.7049,3.7059,3.7064,3.7071,3.7078,3.7082,3.709,3.7099,3.71,3.711,3.7116,3.7127,3.713,3.7138,3.7135,3.7138,3.7139,3.714,3.7141,3.7115,3.714,3.714,3.714,3.714,3.714,0,3.7054,3.7059,3.7069,3.7079,3.7086,3.7084,3.7092,3.7098,3.7108,3.7115,3.7122,3.7134,3.7142,3.7146,3.7155,3.7161,3.7159,3.7163,3.7162,3.7163,3.7144,3.7141,3.7164,3.7164,3.7164,3.7164,3.7164,3.7164,3.7066,3.7079,3.7082,3.7098,3.7103,3.7114,3.7119,3.7125,3.713,3.7143,3.7151,3.7154,3.7159,3.7168,3.7176,3.7177,3.718,3.7184,3.7184,3.7166,3.7164,3.7162,3.7159,3.7185,3.7185,3.7203,3.7203,3.7203]}]]